VIR156T KLAS-EGLL

Flight info

Callsign VIR156T
Flight time N/A
Altitude 35000
Route RATPK3 FRNCK DCT EKR DCT MBW DCT DPR DCT GABOV DCT RIONA DCT 53N085W DCT HELMO/N0495F370 DCT PELSI/M085F370 DCT RADUN DCT 61N050W 61N040W 60N030W 58N020W DCT SUNOT/N0486F370 DCT KESIX DCT MIMKU DCT KELLY L10 WAL UY53 NUGRA
Aircraft A35K/H-SDE2E3GHIJ3J4J5LM1ORWXY/LB1D1

Departure

Time 2026-05-04 09:46
Airport Harry Reid International Airport (KLAS)

Arrival

Time N/A
Airport London Heathrow Airport (EGLL)
Time Latitude Longitude Altitude Speed Heading
2026-05-04 09:29 36.08529 -115.13443 2193 ft 0 kts
2026-05-04 09:34 36.08518 -115.13443 2195 ft 4 kts
2026-05-04 09:35 36.08493 -115.13447 2195 ft 4 kts 19°
2026-05-04 09:35 36.08471 -115.13460 2194 ft 4 kts 41°
2026-05-04 09:35 36.08458 -115.13478 2195 ft 4 kts 77°
2026-05-04 09:35 36.08455 -115.13491 2195 ft 4 kts 124°
2026-05-04 09:37 36.08457 -115.13495 2195 ft 0 kts 135°
2026-05-04 09:38 36.08450 -115.13486 2193 ft 4 kts 135°
2026-05-04 09:38 36.08415 -115.13443 2196 ft 10 kts 135°
2026-05-04 09:39 36.08349 -115.13382 2195 ft 14 kts 160°
2026-05-04 09:39 36.08244 -115.13375 2194 ft 17 kts 179°
2026-05-04 09:39 36.08118 -115.13375 2195 ft 19 kts 180°
2026-05-04 09:39 36.07991 -115.13375 2195 ft 18 kts 180°
2026-05-04 09:40 36.07868 -115.13375 2195 ft 17 kts 180°
2026-05-04 09:40 36.07769 -115.13355 2197 ft 10 kts 136°
2026-05-04 09:40 36.07754 -115.13272 2196 ft 13 kts 90°
2026-05-04 09:40 36.07754 -115.13131 2194 ft 18 kts 90°
2026-05-04 09:41 36.07755 -115.12975 2194 ft 18 kts 89°
2026-05-04 09:42 36.07647 -115.12290 2195 ft 10 kts 253°
2026-05-04 09:43 36.07643 -115.12366 2194 ft 1 kts 269°
2026-05-04 09:43 36.07643 -115.12367 2194 ft 0 kts 269°
2026-05-04 09:46 36.07633 -115.16329 2483 ft 194 kts 266°
2026-05-04 09:46 36.07625 -115.17942 3421 ft 181 kts 267°
2026-05-04 09:46 36.07629 -115.19552 3857 ft 194 kts 268°
2026-05-04 09:47 36.07630 -115.21300 4047 ft 214 kts 268°
2026-05-04 09:47 36.07630 -115.23214 4307 ft 229 kts 269°
2026-05-04 09:49 36.16361 -115.28005 7638 ft 284 kts 54°
2026-05-04 09:49 36.17391 -115.25894 8069 ft 290 kts 69°
2026-05-04 09:49 36.18145 -115.23568 8709 ft 292 kts 73°
2026-05-04 09:51 36.19629 -115.07735 11104 ft 354 kts 94°
2026-05-04 09:51 36.19621 -115.04620 11359 ft 369 kts 94°
2026-05-04 09:51 36.19618 -115.01386 11612 ft 383 kts 94°
2026-05-04 09:51 36.19615 -114.98045 11979 ft 392 kts 93°
2026-05-04 09:52 36.19614 -114.94651 12511 ft 396 kts 93°
2026-05-04 09:52 36.19686 -114.91267 13032 ft 402 kts 88°
2026-05-04 09:52 36.20332 -114.87863 13525 ft 413 kts 70°
2026-05-04 09:52 36.21786 -114.84770 14005 ft 420 kts 54°
2026-05-04 09:53 36.23640 -114.81936 14458 ft 426 kts 52°
2026-05-04 09:53 36.25554 -114.79114 14911 ft 430 kts 51°
2026-05-04 09:53 36.27482 -114.76253 15398 ft 434 kts 52°
2026-05-04 09:53 36.29417 -114.73364 15872 ft 438 kts 51°
2026-05-04 09:54 36.31359 -114.70447 16317 ft 442 kts 51°
2026-05-04 09:54 36.33328 -114.67482 16816 ft 445 kts 51°
2026-05-04 09:54 36.35306 -114.64504 17309 ft 449 kts 51°
2026-05-04 09:54 36.37463 -114.61683 17776 ft 454 kts 41°
2026-05-04 09:55 36.39935 -114.59224 18243 ft 457 kts 37°
2026-05-04 09:55 36.42491 -114.56819 18585 ft 463 kts 37°
2026-05-04 09:55 36.45076 -114.54387 18953 ft 468 kts 36°
2026-05-04 09:55 36.47655 -114.51952 19335 ft 473 kts 36°
2026-05-04 09:56 36.50317 -114.49432 19702 ft 478 kts 36°
2026-05-04 09:56 36.52940 -114.46946 20069 ft 483 kts 35°
2026-05-04 09:56 36.55719 -114.44556 20458 ft 486 kts 30°
2026-05-04 09:56 36.58594 -114.42311 20831 ft 491 kts 29°
2026-05-04 09:57 36.61513 -114.40061 21220 ft 496 kts 29°
2026-05-04 09:57 36.64457 -114.37788 21614 ft 501 kts 28°
2026-05-04 09:57 36.67431 -114.35487 21994 ft 505 kts 28°
2026-05-04 09:57 36.70432 -114.33160 22376 ft 510 kts 28°
2026-05-04 09:58 36.73461 -114.30809 22758 ft 515 kts 28°
2026-05-04 09:58 36.76516 -114.28435 23147 ft 520 kts 28°
2026-05-04 09:58 36.79593 -114.26040 23514 ft 524 kts 27°
2026-05-04 10:00 37.01604 -114.08839 26306 ft 542 kts 27°
2026-05-04 10:00 37.04810 -114.06324 26717 ft 544 kts 27°
2026-05-04 10:02 37.27485 -113.88460 29503 ft 554 kts 27°
2026-05-04 10:04 37.50325 -113.70335 31927 ft 556 kts 26°
2026-05-04 10:04 37.53599 -113.67726 32282 ft 555 kts 26°
2026-05-04 10:04 37.56867 -113.65119 32572 ft 556 kts 26°
2026-05-04 10:04 37.60138 -113.62508 32851 ft 556 kts 26°
2026-05-04 10:05 37.63398 -113.59897 33192 ft 556 kts 27°
2026-05-04 10:05 37.66527 -113.56975 33485 ft 563 kts 37°
2026-05-04 10:05 37.69222 -113.53369 33778 ft 569 kts 50°
2026-05-04 10:05 37.71412 -113.49260 34040 ft 571 kts 56°
2026-05-04 10:06 37.73466 -113.44969 34299 ft 572 kts 58°
2026-05-04 10:06 37.75452 -113.40620 34553 ft 572 kts 58°
2026-05-04 10:06 37.77415 -113.36248 34765 ft 572 kts 58°
2026-05-04 10:08 37.89411 -113.09787 34932 ft 578 kts 58°
2026-05-04 10:08 37.91423 -113.05374 34921 ft 577 kts 58°
2026-05-04 10:08 37.95432 -112.96560 34886 ft 577 kts 58°
2026-05-04 10:09 37.99401 -112.87803 34842 ft 576 kts 58°
2026-05-04 10:09 38.03383 -112.78990 34821 ft 576 kts 58°
2026-05-04 10:10 38.07357 -112.70170 34842 ft 575 kts 58°
2026-05-04 10:10 38.11318 -112.61357 34835 ft 574 kts 58°
2026-05-04 10:11 38.15267 -112.52547 34852 ft 574 kts 58°
2026-05-04 10:11 38.19211 -112.43723 34841 ft 573 kts 58°
2026-05-04 10:12 38.23142 -112.34906 34848 ft 572 kts 58°
2026-05-04 10:12 38.26396 -112.27587 34847 ft 572 kts 58°
2026-05-04 10:13 38.30304 -112.18776 34852 ft 571 kts 58°
2026-05-04 10:13 38.34208 -112.09948 34850 ft 570 kts 58°
2026-05-04 10:14 38.38070 -112.01193 34846 ft 569 kts 58°
2026-05-04 10:16 38.53500 -111.65966 34836 ft 567 kts 58°
2026-05-04 10:16 38.57328 -111.57166 34828 ft 567 kts 58°
2026-05-04 10:17 38.61156 -111.48344 34819 ft 566 kts 58°
2026-05-04 10:19 38.76311 -111.13155 34809 ft 563 kts 59°
2026-05-04 10:19 38.80075 -111.04354 34807 ft 562 kts 59°
2026-05-04 10:20 38.83825 -110.95562 34806 ft 561 kts 59°
2026-05-04 10:20 38.87566 -110.86770 34811 ft 561 kts 59°
2026-05-04 10:21 38.91293 -110.77982 34806 ft 560 kts 59°
2026-05-04 10:21 38.95013 -110.69188 34807 ft 560 kts 59°
2026-05-04 10:22 39.00569 -110.56001 34802 ft 559 kts 59°
2026-05-04 10:23 39.04261 -110.47210 34805 ft 558 kts 59°
2026-05-04 10:25 39.18891 -110.12129 34803 ft 555 kts 59°
2026-05-04 10:25 39.22527 -110.03345 34810 ft 554 kts 59°
2026-05-04 10:26 39.26147 -109.94577 34816 ft 554 kts 59°
2026-05-04 10:26 39.29761 -109.85793 34819 ft 552 kts 59°
2026-05-04 10:27 39.33339 -109.77082 34819 ft 552 kts 60°
2026-05-04 10:27 39.36926 -109.68322 34824 ft 551 kts 60°
2026-05-04 10:28 39.40501 -109.59570 34827 ft 550 kts 60°
2026-05-04 10:28 39.44063 -109.50817 34818 ft 549 kts 60°
2026-05-04 10:29 39.47611 -109.42074 34810 ft 549 kts 60°
2026-05-04 10:29 39.51152 -109.33324 34803 ft 548 kts 60°
2026-05-04 10:30 39.54683 -109.24572 34801 ft 548 kts 60°
2026-05-04 10:30 39.58207 -109.15818 34800 ft 547 kts 60°
2026-05-04 10:31 39.61722 -109.07058 34799 ft 547 kts 60°
2026-05-04 10:32 39.73891 -108.76527 34814 ft 543 kts 60°
2026-05-04 10:33 39.77348 -108.67800 34820 ft 542 kts 60°
2026-05-04 10:33 39.80791 -108.59082 34826 ft 541 kts 60°
2026-05-04 10:34 39.84217 -108.50381 34832 ft 540 kts 60°
2026-05-04 10:34 39.87639 -108.41658 34874 ft 542 kts 59°
2026-05-04 10:35 39.91100 -108.32820 34832 ft 554 kts 59°
2026-05-04 10:35 39.94641 -108.23767 34899 ft 565 kts 59°
2026-05-04 10:36 39.98176 -108.14680 34942 ft 565 kts 59°
2026-05-04 10:36 40.01710 -108.05558 34992 ft 562 kts 59°
2026-05-04 10:37 40.05296 -107.96534 35015 ft 557 kts 54°
2026-05-04 10:37 40.07531 -107.92471 35029 ft 547 kts 43°
2026-05-04 10:37 40.10200 -107.88997 35020 ft 537 kts 35°
2026-05-04 10:39 40.30393 -107.67751 34935 ft 529 kts 33°
2026-05-04 10:40 40.36133 -107.61713 34971 ft 528 kts 33°
2026-05-04 10:40 40.41848 -107.55677 35002 ft 527 kts 34°
2026-05-04 10:41 40.47513 -107.49680 35000 ft 526 kts 34°
2026-05-04 10:41 40.53255 -107.43598 34998 ft 535 kts 34°
2026-05-04 10:42 40.59077 -107.37415 34972 ft 539 kts 34°
2026-05-04 10:42 40.64910 -107.31197 34959 ft 538 kts 35°
2026-05-04 10:43 40.70729 -107.24980 34931 ft 534 kts 35°
2026-05-04 10:44 40.90437 -107.03829 34852 ft 520 kts 36°
2026-05-04 10:45 40.93235 -107.00813 34837 ft 520 kts 36°
2026-05-04 10:45 40.98833 -106.94768 34838 ft 519 kts 36°
2026-05-04 10:46 41.04412 -106.88731 34837 ft 518 kts 36°
2026-05-04 10:46 41.09991 -106.82679 34832 ft 517 kts 36°
2026-05-04 10:47 41.15562 -106.76621 34860 ft 516 kts 36°
2026-05-04 10:47 41.21103 -106.70582 34885 ft 515 kts 36°
2026-05-04 10:49 41.43059 -106.46520 34859 ft 510 kts 36°
2026-05-04 10:50 41.48529 -106.40492 34815 ft 510 kts 36°
2026-05-04 10:52 41.70342 -106.16315 34774 ft 509 kts 36°
2026-05-04 10:52 41.75780 -106.10254 34775 ft 509 kts 36°
2026-05-04 10:54 41.97011 -105.85171 34782 ft 510 kts 39°
2026-05-04 10:56 42.17789 -105.59311 34774 ft 508 kts 38°
2026-05-04 10:57 42.22976 -105.52838 34766 ft 508 kts 39°
2026-05-04 10:57 42.28156 -105.46357 34763 ft 508 kts 39°
2026-05-04 10:58 42.33333 -105.39863 34759 ft 507 kts 39°
2026-05-04 10:58 42.38489 -105.33380 34771 ft 506 kts 39°
2026-05-04 10:59 42.43640 -105.26891 34780 ft 505 kts 39°
2026-05-04 10:59 42.48782 -105.20396 34797 ft 505 kts 39°
2026-05-04 11:00 42.53881 -105.13941 34809 ft 504 kts 39°
2026-05-04 11:01 42.70940 -104.92226 34703 ft 502 kts 37°
2026-05-04 11:02 42.73455 -104.89002 34790 ft 505 kts 37°
2026-05-04 11:05 43.11873 -104.39432 34818 ft 506 kts 37°
2026-05-04 11:06 43.16933 -104.32835 34825 ft 506 kts 37°
2026-05-04 11:06 43.22028 -104.26176 34831 ft 505 kts 37°
2026-05-04 11:10 43.57517 -103.79337 34837 ft 506 kts 37°
2026-05-04 11:12 43.77704 -103.52328 34852 ft 505 kts 37°
2026-05-04 11:12 43.82740 -103.45549 34833 ft 504 kts 37°
2026-05-04 11:13 43.87762 -103.38771 34814 ft 504 kts 38°
2026-05-04 11:13 43.92777 -103.31988 34777 ft 503 kts 38°
2026-05-04 11:16 44.17740 -102.97966 34780 ft 503 kts 38°
2026-05-04 11:16 44.22732 -102.91110 34780 ft 503 kts 38°
2026-05-04 11:17 44.27681 -102.84296 34779 ft 504 kts 38°
2026-05-04 11:19 44.47617 -102.56676 34777 ft 505 kts 38°
2026-05-04 11:19 44.52594 -102.49737 34777 ft 505 kts 38°
2026-05-04 11:20 44.57571 -102.42780 34777 ft 505 kts 38°
2026-05-04 11:20 44.62547 -102.35807 34777 ft 506 kts 38°
2026-05-04 11:22 44.82414 -102.07785 34772 ft 507 kts 38°
2026-05-04 11:23 44.87384 -102.00731 34777 ft 507 kts 38°
2026-05-04 11:25 45.04779 -101.75891 34767 ft 508 kts 38°
2026-05-04 11:25 45.09735 -101.68751 34765 ft 509 kts 39°
2026-05-04 11:27 45.31604 -101.35151 34740 ft 520 kts 41°
2026-05-04 11:28 45.36509 -101.27591 34739 ft 521 kts 41°
2026-05-04 11:28 45.41421 -101.19999 34741 ft 522 kts 41°
2026-05-04 11:29 45.46310 -101.12422 34738 ft 523 kts 41°
2026-05-04 11:29 45.51233 -101.04769 34741 ft 524 kts 41°
2026-05-04 11:33 45.85723 -100.50544 34704 ft 529 kts 41°
2026-05-04 11:33 45.90625 -100.42750 34703 ft 529 kts 41°
2026-05-04 11:34 45.95562 -100.34877 34706 ft 530 kts 40°
2026-05-04 11:34 46.00498 -100.26984 34698 ft 531 kts 41°
2026-05-04 11:35 46.05429 -100.19075 34699 ft 531 kts 40°
2026-05-04 11:35 46.10366 -100.11135 34690 ft 532 kts 41°
2026-05-04 11:36 46.15301 -100.03173 34695 ft 533 kts 41°
2026-05-04 11:36 46.20236 -99.95190 34691 ft 533 kts 41°
2026-05-04 11:37 46.25141 -99.87231 34691 ft 534 kts 41°
2026-05-04 11:37 46.30082 -99.79190 34688 ft 535 kts 41°
2026-05-04 11:38 46.35017 -99.71136 34692 ft 536 kts 41°
2026-05-04 11:38 46.39963 -99.63039 34693 ft 536 kts 41°
2026-05-04 11:39 46.44897 -99.54937 34688 ft 536 kts 41°
2026-05-04 11:41 46.62132 -99.26447 34684 ft 537 kts 41°
2026-05-04 11:41 46.67045 -99.18270 34679 ft 536 kts 41°
2026-05-04 11:42 46.71947 -99.10089 34679 ft 535 kts 41°
2026-05-04 11:42 46.76837 -99.01901 34677 ft 535 kts 41°
2026-05-04 11:43 46.81686 -98.93757 34683 ft 534 kts 41°
2026-05-04 11:43 46.86576 -98.85521 34675 ft 533 kts 41°
2026-05-04 11:44 46.91434 -98.77317 34676 ft 533 kts 41°
2026-05-04 11:44 46.96277 -98.69113 34677 ft 533 kts 41°
2026-05-04 11:45 47.01119 -98.60883 34677 ft 533 kts 41°
2026-05-04 11:45 47.05922 -98.52695 34662 ft 533 kts 41°
2026-05-04 11:46 47.10785 -98.44380 34666 ft 533 kts 41°
2026-05-04 11:46 47.15579 -98.36159 34653 ft 534 kts 42°
2026-05-04 11:47 47.20403 -98.27861 34648 ft 534 kts 42°
2026-05-04 11:47 47.25232 -98.19529 34642 ft 534 kts 42°
2026-05-04 11:48 47.30047 -98.11193 34632 ft 535 kts 42°
2026-05-04 11:48 47.34868 -98.02823 34612 ft 535 kts 43°
2026-05-04 11:49 47.38865 -97.95865 34616 ft 535 kts 43°
2026-05-04 11:49 47.43672 -97.87471 34619 ft 535 kts 43°
2026-05-04 11:50 47.48473 -97.79061 34616 ft 535 kts 43°
2026-05-04 11:50 47.53258 -97.70655 34610 ft 534 kts 43°
2026-05-04 11:51 47.58040 -97.62226 34607 ft 534 kts 43°
2026-05-04 11:51 47.62807 -97.53798 34599 ft 533 kts 44°
2026-05-04 11:52 47.67564 -97.45363 34590 ft 532 kts 44°
2026-05-04 11:52 47.72306 -97.36926 34582 ft 531 kts 44°
2026-05-04 11:53 47.77034 -97.28488 34588 ft 531 kts 44°
2026-05-04 11:53 47.81754 -97.20041 34583 ft 530 kts 44°
2026-05-04 11:55 48.00474 -96.86264 34575 ft 528 kts 45°
2026-05-04 11:56 48.05136 -96.77787 34570 ft 527 kts 45°
2026-05-04 11:56 48.09784 -96.69308 34569 ft 526 kts 45°
2026-05-04 11:57 48.14414 -96.60835 34563 ft 526 kts 45°
2026-05-04 11:57 48.19038 -96.52346 34556 ft 525 kts 45°
2026-05-04 11:58 48.23644 -96.43863 34553 ft 525 kts 46°
2026-05-04 11:58 48.28246 -96.35362 34552 ft 525 kts 46°
2026-05-04 11:59 48.32839 -96.26852 34554 ft 524 kts 46°
2026-05-04 11:59 48.37424 -96.18329 34558 ft 524 kts 46°
2026-05-04 12:00 48.42007 -96.09783 34556 ft 524 kts 46°
2026-05-04 12:00 48.46540 -96.01301 34554 ft 523 kts 46°
2026-05-04 12:01 48.51101 -95.92741 34551 ft 523 kts 46°
2026-05-04 12:02 48.67012 -95.62662 34512 ft 523 kts 46°
2026-05-04 12:03 48.71542 -95.54035 34510 ft 523 kts 46°
2026-05-04 12:03 48.76062 -95.45402 34511 ft 523 kts 47°
2026-05-04 12:04 48.80585 -95.36734 34485 ft 523 kts 47°
2026-05-04 12:04 48.85072 -95.28107 34483 ft 523 kts 47°
2026-05-04 12:05 48.89574 -95.19424 34483 ft 523 kts 47°
2026-05-04 12:05 48.94075 -95.10713 34487 ft 524 kts 47°
2026-05-04 12:06 48.98568 -95.01990 34490 ft 524 kts 47°
2026-05-04 12:06 49.03058 -94.93245 34487 ft 524 kts 47°
2026-05-04 12:07 49.07529 -94.84506 34482 ft 524 kts 47°
2026-05-04 12:07 49.12006 -94.75729 34469 ft 523 kts 47°
2026-05-04 12:08 49.16472 -94.66944 34460 ft 523 kts 48°
2026-05-04 12:08 49.20932 -94.58141 34443 ft 523 kts 48°
2026-05-04 12:09 49.25383 -94.49327 34437 ft 523 kts 48°
2026-05-04 12:09 49.29827 -94.40499 34419 ft 523 kts 48°
2026-05-04 12:10 49.34265 -94.31652 34414 ft 523 kts 48°
2026-05-04 12:10 49.38666 -94.22850 34404 ft 523 kts 49°
2026-05-04 12:11 49.43086 -94.13982 34388 ft 523 kts 49°
2026-05-04 12:11 49.47583 -94.05194 34379 ft 520 kts 43°
2026-05-04 12:12 49.52692 -93.97366 34379 ft 517 kts 39°
2026-05-04 12:12 49.57910 -93.89741 34363 ft 517 kts 39°
2026-05-04 12:14 49.78747 -93.59168 34331 ft 517 kts 40°
2026-05-04 12:15 49.83947 -93.51460 34326 ft 517 kts 40°
2026-05-04 12:15 49.89133 -93.43748 34324 ft 517 kts 40°
2026-05-04 12:16 49.94325 -93.36004 34316 ft 517 kts 40°
2026-05-04 12:16 49.99501 -93.28259 34308 ft 517 kts 40°
2026-05-04 12:17 50.04671 -93.20501 34310 ft 517 kts 40°
2026-05-04 12:17 50.09848 -93.12706 34301 ft 517 kts 40°
2026-05-04 12:18 50.15014 -93.04904 34295 ft 517 kts 40°
2026-05-04 12:18 50.20177 -92.97079 34284 ft 517 kts 41°
2026-05-04 12:19 50.25298 -92.89296 34281 ft 517 kts 41°
2026-05-04 12:19 50.30444 -92.81448 34260 ft 517 kts 41°
2026-05-04 12:20 50.35586 -92.73582 34258 ft 517 kts 41°
2026-05-04 12:20 50.40720 -92.65703 34253 ft 517 kts 41°
2026-05-04 12:21 50.45789 -92.57667 34242 ft 519 kts 47°
2026-05-04 12:21 50.49904 -92.48319 34239 ft 522 kts 56°
2026-05-04 12:22 50.53690 -92.38582 34233 ft 523 kts 57°
2026-05-04 12:22 50.57420 -92.28769 34226 ft 523 kts 57°
2026-05-04 12:23 50.61152 -92.18954 34220 ft 522 kts 57°
2026-05-04 12:23 50.64893 -92.09130 34216 ft 522 kts 57°
2026-05-04 12:24 50.68622 -91.99315 34209 ft 522 kts 57°
2026-05-04 12:24 50.72348 -91.89470 34209 ft 522 kts 57°
2026-05-04 12:25 50.76034 -91.79692 34206 ft 522 kts 57°
2026-05-04 12:25 50.79743 -91.69815 34202 ft 522 kts 57°
2026-05-04 12:26 50.83439 -91.59933 34193 ft 522 kts 58°
2026-05-04 12:26 50.87121 -91.50050 34191 ft 521 kts 58°
2026-05-04 12:27 50.90795 -91.40152 34192 ft 521 kts 58°
2026-05-04 12:27 50.94463 -91.30230 34186 ft 521 kts 58°
2026-05-04 12:28 50.98126 -91.20285 34183 ft 521 kts 58°
2026-05-04 12:28 51.01776 -91.10336 34181 ft 521 kts 58°
2026-05-04 12:29 51.05390 -91.00446 34176 ft 521 kts 58°
2026-05-04 12:29 51.09020 -90.90475 34177 ft 521 kts 58°
2026-05-04 12:30 51.12643 -90.80486 34173 ft 521 kts 58°
2026-05-04 12:30 51.16258 -90.70475 34170 ft 521 kts 59°
2026-05-04 12:31 51.19865 -90.60450 34168 ft 521 kts 59°
2026-05-04 12:31 51.23471 -90.50388 34155 ft 521 kts 59°
2026-05-04 12:32 51.28855 -90.35288 34140 ft 521 kts 59°
2026-05-04 12:33 51.32434 -90.25204 34132 ft 521 kts 59°
2026-05-04 12:33 51.35981 -90.15167 34132 ft 522 kts 59°
2026-05-04 12:34 51.39544 -90.05044 34130 ft 522 kts 59°
2026-05-04 12:34 51.43095 -89.94917 34135 ft 521 kts 59°
2026-05-04 12:35 51.46639 -89.84767 34142 ft 521 kts 60°
2026-05-04 12:35 51.50173 -89.74607 34144 ft 521 kts 60°
2026-05-04 12:36 51.53094 -89.66178 34143 ft 521 kts 60°
2026-05-04 12:36 51.56609 -89.55995 34138 ft 520 kts 60°
2026-05-04 12:37 51.60111 -89.45811 34138 ft 520 kts 60°
2026-05-04 12:37 51.63605 -89.35609 34138 ft 520 kts 60°
2026-05-04 12:38 51.67091 -89.25388 34136 ft 520 kts 60°
2026-05-04 12:38 51.70575 -89.15142 34135 ft 520 kts 61°
2026-05-04 12:39 51.74034 -89.04912 34133 ft 520 kts 61°
2026-05-04 12:39 51.77491 -88.94642 34136 ft 520 kts 61°
2026-05-04 12:40 51.80914 -88.84440 34136 ft 520 kts 61°
2026-05-04 12:40 51.84350 -88.74153 34136 ft 520 kts 61°
2026-05-04 12:41 51.87778 -88.63851 34140 ft 520 kts 62°
2026-05-04 12:41 51.91200 -88.53524 34139 ft 520 kts 62°
2026-05-04 12:42 51.94614 -88.43179 34144 ft 520 kts 62°
2026-05-04 12:42 51.98016 -88.32827 34146 ft 520 kts 62°
2026-05-04 12:43 52.01385 -88.22529 34135 ft 520 kts 62°
2026-05-04 12:43 52.04769 -88.12145 34131 ft 520 kts 62°
2026-05-04 12:44 52.08143 -88.01747 34123 ft 520 kts 62°
2026-05-04 12:44 52.11509 -87.91332 34118 ft 520 kts 62°
2026-05-04 12:45 52.14867 -87.80892 34108 ft 520 kts 62°
2026-05-04 12:45 52.18213 -87.70449 34124 ft 520 kts 62°
2026-05-04 12:46 52.21553 -87.59981 34141 ft 520 kts 63°
2026-05-04 12:46 52.24874 -87.49524 34166 ft 520 kts 63°
2026-05-04 12:47 52.28195 -87.39026 34197 ft 520 kts 63°
2026-05-04 12:47 52.31485 -87.28580 34207 ft 520 kts 63°
2026-05-04 12:48 52.34783 -87.18061 34219 ft 520 kts 63°
2026-05-04 12:48 52.38075 -87.07518 34230 ft 520 kts 63°
2026-05-04 12:49 52.41356 -86.96966 34237 ft 520 kts 63°
2026-05-04 12:49 52.44626 -86.86402 34248 ft 520 kts 63°
2026-05-04 12:50 52.47886 -86.75822 34259 ft 520 kts 63°
2026-05-04 12:50 52.51139 -86.65221 34266 ft 520 kts 63°
2026-05-04 12:51 52.54381 -86.54607 34272 ft 520 kts 63°
2026-05-04 12:51 52.57614 -86.43978 34284 ft 520 kts 64°
2026-05-04 12:52 52.60839 -86.33326 34287 ft 520 kts 64°
2026-05-04 12:52 52.64057 -86.22651 34302 ft 520 kts 64°
2026-05-04 12:53 52.67259 -86.11981 34312 ft 520 kts 64°
2026-05-04 12:53 52.70453 -86.01294 34320 ft 519 kts 64°
2026-05-04 12:54 52.73633 -85.90600 34326 ft 518 kts 64°
2026-05-04 12:54 52.76776 -85.79985 34336 ft 517 kts 64°
2026-05-04 12:55 52.79929 -85.69293 34343 ft 517 kts 64°
2026-05-04 12:55 52.83060 -85.58623 34350 ft 516 kts 64°
2026-05-04 12:56 52.86181 -85.47943 34359 ft 515 kts 64°
2026-05-04 12:56 52.89291 -85.37250 34366 ft 514 kts 64°
2026-05-04 12:57 52.92382 -85.26573 34371 ft 514 kts 64°
2026-05-04 12:57 52.95464 -85.15878 34377 ft 514 kts 65°
2026-05-04 12:58 52.98531 -85.05190 34383 ft 513 kts 65°
2026-05-04 12:58 53.01912 -84.94844 34388 ft 513 kts 59°
2026-05-04 12:59 53.05601 -84.84679 34393 ft 514 kts 59°
2026-05-04 12:59 53.09323 -84.74540 34400 ft 514 kts 59°
2026-05-04 13:00 53.13036 -84.64371 34405 ft 514 kts 59°
2026-05-04 13:00 53.16741 -84.54152 34409 ft 514 kts 59°
2026-05-04 13:01 53.20434 -84.43911 34413 ft 515 kts 59°
2026-05-04 13:01 53.24121 -84.33643 34417 ft 515 kts 59°
2026-05-04 13:02 53.27775 -84.23428 34419 ft 516 kts 59°
2026-05-04 13:02 53.31453 -84.13106 34428 ft 517 kts 59°
2026-05-04 13:03 53.35128 -84.02746 34436 ft 517 kts 59°
2026-05-04 13:03 53.38789 -83.92383 34432 ft 516 kts 59°
2026-05-04 13:04 53.42438 -83.82015 34433 ft 516 kts 59°
2026-05-04 13:04 53.46067 -83.71657 34436 ft 515 kts 59°
2026-05-04 13:05 53.49692 -83.61266 34440 ft 515 kts 60°
2026-05-04 13:05 53.53303 -83.50874 34445 ft 515 kts 60°
2026-05-04 13:06 53.56875 -83.40548 34449 ft 514 kts 60°
2026-05-04 13:06 53.60461 -83.30139 34451 ft 514 kts 60°
2026-05-04 13:07 53.64039 -83.19709 34453 ft 514 kts 60°
2026-05-04 13:07 53.67607 -83.09268 34457 ft 513 kts 60°
2026-05-04 13:08 53.71165 -82.98811 34457 ft 514 kts 60°
2026-05-04 13:08 53.74710 -82.88344 34459 ft 513 kts 60°
2026-05-04 13:09 53.78223 -82.77926 34465 ft 513 kts 60°
2026-05-04 13:09 53.81756 -82.67407 34460 ft 513 kts 60°
2026-05-04 13:10 53.85277 -82.56882 34469 ft 513 kts 60°
2026-05-04 13:10 53.88787 -82.46341 34466 ft 513 kts 61°
2026-05-04 13:11 53.92280 -82.35807 34465 ft 513 kts 61°
2026-05-04 13:11 53.95741 -82.25321 34465 ft 512 kts 61°
2026-05-04 13:12 53.99216 -82.14751 34467 ft 512 kts 61°
2026-05-04 13:12 54.02674 -82.04184 34469 ft 511 kts 61°
2026-05-04 13:13 54.06125 -81.93596 34469 ft 511 kts 61°
2026-05-04 13:13 54.09562 -81.83004 34469 ft 511 kts 61°
2026-05-04 13:14 54.12992 -81.72384 34472 ft 511 kts 61°
2026-05-04 13:14 54.16414 -81.61747 34473 ft 511 kts 62°
2026-05-04 13:15 54.19821 -81.51106 34479 ft 511 kts 62°
2026-05-04 13:15 54.23218 -81.40449 34480 ft 511 kts 62°
2026-05-04 13:16 54.26607 -81.29772 34485 ft 511 kts 62°
2026-05-04 13:16 54.29970 -81.19131 34488 ft 511 kts 62°
2026-05-04 13:17 54.33337 -81.08430 34490 ft 511 kts 62°
2026-05-04 13:17 54.36702 -80.97685 34498 ft 511 kts 62°
2026-05-04 13:18 54.40050 -80.86948 34499 ft 511 kts 62°
2026-05-04 13:18 54.43391 -80.76183 34504 ft 511 kts 62°
2026-05-04 13:19 54.46725 -80.65396 34506 ft 510 kts 62°
2026-05-04 13:19 54.50045 -80.54603 34515 ft 510 kts 63°
2026-05-04 13:20 54.53357 -80.43786 34518 ft 510 kts 63°
2026-05-04 13:20 54.56654 -80.32971 34519 ft 510 kts 63°
2026-05-04 13:21 54.59919 -80.22213 34529 ft 510 kts 63°
2026-05-04 13:21 54.63198 -80.11359 34525 ft 509 kts 63°
2026-05-04 13:22 54.66460 -80.00510 34528 ft 509 kts 63°
2026-05-04 13:22 54.69720 -79.89619 34531 ft 509 kts 63°
2026-05-04 13:23 54.72965 -79.78730 34536 ft 509 kts 63°
2026-05-04 13:23 54.76203 -79.67811 34543 ft 510 kts 63°
2026-05-04 13:24 54.79407 -79.56962 34542 ft 509 kts 63°
2026-05-04 13:24 54.82627 -79.46008 34550 ft 509 kts 64°
2026-05-04 13:25 54.87429 -79.29568 34555 ft 509 kts 64°
2026-05-04 13:25 54.90619 -79.18583 34559 ft 509 kts 64°
2026-05-04 13:26 54.93262 -79.09443 34560 ft 509 kts 64°
2026-05-04 13:26 54.96339 -78.98758 34567 ft 510 kts 64°
2026-05-04 13:27 54.99502 -78.87725 34570 ft 510 kts 64°
2026-05-04 13:27 55.02658 -78.76661 34569 ft 510 kts 64°
2026-05-04 13:28 55.05803 -78.65582 34574 ft 510 kts 64°
2026-05-04 13:28 55.08943 -78.54472 34581 ft 510 kts 64°
2026-05-04 13:29 55.12070 -78.43352 34579 ft 510 kts 65°
2026-05-04 13:29 55.15191 -78.32201 34588 ft 510 kts 65°
2026-05-04 13:30 55.18299 -78.21041 34598 ft 510 kts 65°
2026-05-04 13:30 55.21395 -78.09872 34602 ft 510 kts 65°
2026-05-04 13:31 55.24464 -77.98745 34608 ft 510 kts 65°
2026-05-04 13:31 55.27539 -77.87541 34608 ft 510 kts 65°
2026-05-04 13:32 55.30605 -77.76317 34609 ft 509 kts 65°
2026-05-04 13:32 55.33658 -77.65086 34608 ft 509 kts 66°
2026-05-04 13:33 55.36700 -77.53837 34612 ft 509 kts 66°
2026-05-04 13:33 55.39731 -77.42577 34620 ft 509 kts 66°
2026-05-04 13:34 55.42751 -77.31300 34629 ft 509 kts 66°
2026-05-04 13:34 55.45758 -77.20018 34642 ft 509 kts 66°
2026-05-04 13:35 55.50250 -77.03055 34651 ft 509 kts 66°
2026-05-04 13:36 55.53229 -76.91739 34658 ft 509 kts 66°
2026-05-04 13:36 55.56207 -76.80371 34664 ft 509 kts 66°
2026-05-04 13:37 55.59145 -76.69093 34671 ft 509 kts 67°
2026-05-04 13:37 55.62103 -76.57679 34676 ft 509 kts 67°
2026-05-04 13:38 55.65045 -76.46274 34675 ft 508 kts 67°
2026-05-04 13:38 55.67966 -76.34887 34680 ft 508 kts 67°
2026-05-04 13:39 55.70883 -76.23459 34679 ft 508 kts 67°
2026-05-04 13:39 55.73791 -76.12014 34685 ft 509 kts 68°
2026-05-04 13:40 55.76690 -76.00544 34688 ft 509 kts 68°
2026-05-04 13:40 55.79557 -75.89135 34690 ft 509 kts 68°
2026-05-04 13:41 55.82429 -75.77652 34696 ft 508 kts 68°
2026-05-04 13:41 55.85294 -75.66140 34697 ft 508 kts 68°
2026-05-04 13:42 55.89564 -75.48868 34703 ft 508 kts 68°
2026-05-04 13:42 55.92398 -75.37320 34703 ft 508 kts 69°
2026-05-04 13:43 55.95219 -75.25771 34710 ft 508 kts 69°
2026-05-04 13:43 55.98035 -75.14185 34711 ft 508 kts 69°
2026-05-04 13:44 56.00844 -75.02595 34723 ft 509 kts 68°
2026-05-04 13:44 56.04104 -74.91370 35210 ft 505 kts 64°
2026-05-04 13:45 56.05751 -74.85928 35583 ft 503 kts 64°
2026-05-04 13:45 56.07445 -74.80357 35857 ft 503 kts 64°
2026-05-04 13:45 56.09116 -74.74867 36105 ft 503 kts 64°
2026-05-04 13:45 56.10772 -74.69418 36329 ft 504 kts 64°
2026-05-04 13:46 56.12442 -74.63906 36537 ft 504 kts 64°
2026-05-04 13:46 56.14112 -74.58380 36709 ft 506 kts 64°
2026-05-04 13:46 56.17482 -74.47171 36727 ft 512 kts 64°
2026-05-04 13:47 56.20848 -74.35923 36749 ft 511 kts 64°
2026-05-04 13:47 56.24200 -74.24666 36750 ft 511 kts 64°
2026-05-04 13:48 56.27545 -74.13378 36737 ft 511 kts 64°
2026-05-04 13:48 56.30873 -74.02091 36755 ft 511 kts 64°
2026-05-04 13:49 56.34195 -73.90771 36755 ft 511 kts 65°
2026-05-04 13:49 56.37487 -73.79499 36755 ft 511 kts 65°
2026-05-04 13:50 56.40786 -73.68146 36752 ft 511 kts 65°
2026-05-04 13:50 56.44083 -73.56746 36763 ft 511 kts 65°